Location: Guadanolo
(41.9167°N, 12.9333°E)
Time: 05:51:05
(UTC+00:00)

NOSS 3-4 (A) - Pass Details

Date: 16 September 2019
Orbit: 910 x 1303 km, 63.4° (Epoch: 21 September)

Event Time Altitude Azimuth Distance (km) Brightness Sun altitude
Rises 19:30:02 0° 323° (NW) 3,862 7.7 -24.5°
Reaches altitude 10° 19:32:34 10° 323° (NW) 2,958 6.9 -24.9°
Maximum altitude 19:39:41 82° 237° (WSW) 1,191 3.8 -26.1°
Enters shadow 19:42:03 49° 156° (SSE) 1,519 4.1 -26.5°
